Weather reports worldwide

Advertisment
Firenze/Peretola, Italy (16170): temperature & dewpoint: 20.05.2019 00:00:00 - 26.05.2019 00:00:00 (CEST)Firenze/Peretola, Italy (16170): wind speed: 20.05.2019 00:00:00 - 26.05.2019 00:00:00 (CEST)Firenze/Peretola, Italy (16170): wind direction: 20.05.2019 00:00:00 - 26.05.2019 00:00:00 (CEST)Firenze/Peretola, Italy (16170): reduced air pressure: 20.05.2019 00:00:00 - 26.05.2019 00:00:00 (CEST)Firenze/Peretola, Italy (16170): visibility: 20.05.2019 00:00:00 - 26.05.2019 00:00:00 (CEST)Firenze/Peretola, Italy (16170): precipitation: 20.05.2019 00:00:00 - 26.05.2019 00:00:00 (CEST)
Date & Time tt [°C] td [°C] ff [km/h] ff [kn] dd ppp [hPa] vv [km] rr [mm]
26.05.2019 00:00:00 16,0 16,0 8 4 WNW - 10 -
25.05.2019 23:00:00 16,2 15,7 4 2 - 1015,8 10 0,0
25.05.2019 22:00:00 16,0 16,0 11 6 NE - 10 -
25.05.2019 21:00:00 18,0 15,0 21 11 ESE - 6 -
25.05.2019 20:00:00 21,6 12,7 16 9 WSW 1013,3 10 -
25.05.2019 19:00:00 23,0 15,0 21 11 SW - 10 -
25.05.2019 18:00:00 25,0 13,0 11 6 WNW - 10 -
25.05.2019 17:00:00 25,1 11,9 11 6 NW 1012,3 10 0,0
25.05.2019 16:00:00 25,0 12,0 9 5 NW - 10 -
25.05.2019 15:00:00 25,0 11,0 9 5 NW - 10 -
25.05.2019 14:00:00 23,5 11,9 5 3 - 1014,3 10 -
25.05.2019 13:00:00 23,0 10,0 5 3 - - 10 -
25.05.2019 12:00:00 22,0 12,0 8 4 NW - 10 -
25.05.2019 11:00:00 20,9 13,7 4 2 - 1015,2 10 0,0
25.05.2019 10:00:00 18,0 13,0 4 2 - - 10 -
25.05.2019 09:00:00 17,0 13,0 4 2 - - 10 -
25.05.2019 08:00:00 15,0 11,9 4 2 - 1015,1 10 -
25.05.2019 07:00:00 12,0 11,0 4 2 - - 10 -
25.05.2019 06:00:00 11,0 10,0 5 3 E - 10 -
25.05.2019 05:00:00 10,9 10,2 2 1 - 1014,4 10 0,0
25.05.2019 04:00:00 - - - - - - - -
25.05.2019 03:00:00 13,0 11,0 4 2 - - 10 -
25.05.2019 02:00:00 13,3 11,5 8 4 E 1014,5 10 -
25.05.2019 01:00:00 14,0 12,0 9 5 E - 10 -
25.05.2019 00:00:00 15,0 12,0 9 5 E - 10 -
24.05.2019 23:00:00 15,5 11,8 5 3 E 1014,4 10 0,0
24.05.2019 22:00:00 17,0 12,0 4 2 - - 10 -
24.05.2019 21:00:00 20,0 12,0 9 5 WSW - 10 -
24.05.2019 20:00:00 21,3 11,3 15 8 SW 1012,9 10 -
24.05.2019 19:00:00 23,0 11,0 15 8 WSW - 10 -
24.05.2019 18:00:00 24,0 14,0 8 4 W - 10 -
24.05.2019 17:00:00 23,5 13,9 5 3 - 1013,2 10 0,0
24.05.2019 16:00:00 23,0 14,0 9 5 WNW - 10 -
24.05.2019 15:00:00 22,0 14,0 8 4 NNW - 10 -
24.05.2019 14:00:00 20,0 13,5 5 3 NNW 1015,0 10 -
24.05.2019 13:00:00 19,0 13,0 2 1 - - 10 -
24.05.2019 12:00:00 18,0 13,0 5 3 SSW - 10 -
24.05.2019 11:00:00 18,1 12,7 5 3 SW 1016,2 10 0,0
24.05.2019 10:00:00 18,0 13,0 5 3 - - 10 -
24.05.2019 09:00:00 17,0 13,0 2 1 - - 10 -
24.05.2019 08:00:00 15,9 13,6 5 3 ESE 1015,9 10 -
24.05.2019 07:00:00 15,0 13,0 8 4 E - 10 -
24.05.2019 06:00:00 14,0 13,0 5 3 SSE - 8 -
24.05.2019 05:00:00 14,6 13,2 4 2 E 1015,6 10 0,0
24.05.2019 04:00:00 14,0 13,0 5 3 ENE - 10 -
24.05.2019 03:00:00 13,0 12,0 9 5 E - 10 -
24.05.2019 02:00:00 13,0 11,9 8 4 E 1016,3 10 -
24.05.2019 01:00:00 14,0 12,0 4 2 - - 10 -
24.05.2019 00:00:00 16,0 13,0 5 3 S - 10 -
23.05.2019 23:00:00 16,2 13,0 4 2 - 1016,2 10 0,0
23.05.2019 22:00:00 18,0 13,0 5 3 SW - 10 -
23.05.2019 21:00:00 19,0 13,0 11 6 SW - 10 -
23.05.2019 20:00:00 20,3 11,9 15 8 SW 1015,0 10 -
23.05.2019 19:00:00 22,0 13,0 21 11 WSW - 10 -
23.05.2019 18:00:00 23,0 13,0 15 8 WSW - 10 -
23.05.2019 17:00:00 23,0 13,8 9 5 WSW 1014,9 10 0,0
23.05.2019 16:00:00 23,0 14,0 8 4 WSW - 10 -
23.05.2019 15:00:00 23,0 12,0 9 5 WSW - 10 -
23.05.2019 14:00:00 21,3 13,7 9 5 W 1016,4 10 -
23.05.2019 13:00:00 21,0 14,0 9 5 SSW - 10 -
23.05.2019 12:00:00 20,0 15,0 5 3 - - 10 -
23.05.2019 11:00:00 18,4 14,2 5 3 - 1017,4 10 0,0
23.05.2019 10:00:00 17,0 14,0 4 2 - - 8 -
23.05.2019 09:00:00 15,0 14,0 4 2 - - 8 -
23.05.2019 08:00:00 14,3 13,3 2 1 - 1017,5 8 -
23.05.2019 07:00:00 13,0 13,0 4 2 - - 10 -
23.05.2019 06:00:00 13,0 13,0 5 3 SSE - 10 -
23.05.2019 05:00:00 13,8 13,3 4 2 - 1016,9 10 0,0
23.05.2019 04:00:00 14,0 13,0 2 1 - - 10 -
23.05.2019 03:00:00 14,0 13,0 4 2 - - 10 -
23.05.2019 02:00:00 13,4 13,1 2 1 - 1017,2 10 -
23.05.2019 01:00:00 13,0 12,0 8 4 E - 10 -
23.05.2019 00:00:00 13,0 12,0 4 2 - - 10 -
22.05.2019 23:00:00 14,3 13,7 4 2 - 1016,6 10 0,0
22.05.2019 22:00:00 15,0 14,0 5 3 ESE - 10 -
22.05.2019 21:00:00 17,0 15,0 8 4 E - 10 -
22.05.2019 20:00:00 16,9 14,9 8 4 E 1015,2 10 -
22.05.2019 19:00:00 18,0 15,0 13 7 ESE - 10 -
22.05.2019 18:00:00 19,0 14,0 16 9 S - 10 -
22.05.2019 17:00:00 21,0 14,0 18 10 SW 1015,0 10 0,0
22.05.2019 16:00:00 21,0 13,0 8 4 NW - 10 -
22.05.2019 15:00:00 22,0 13,0 9 5 W - 10 -
22.05.2019 14:00:00 21,4 13,0 4 2 - 1015,7 10 -
22.05.2019 13:00:00 20,0 13,0 5 3 - - 10 -
22.05.2019 12:00:00 19,0 13,0 4 2 - - 10 -
22.05.2019 11:00:00 18,2 13,2 4 2 - 1016,1 10 0,0
22.05.2019 10:00:00 16,0 13,0 2 1 - - 10 -
22.05.2019 09:00:00 15,0 12,0 2 1 - - 10 -
22.05.2019 08:00:00 14,3 12,1 4 2 - 1015,8 10 -
22.05.2019 07:00:00 13,0 12,0 2 1 W - 10 -
22.05.2019 06:00:00 13,0 12,0 4 2 - - 8 -
22.05.2019 05:00:00 13,2 11,9 5 3 SE 1015,3 10 0,0
22.05.2019 04:00:00 13,0 12,0 8 4 ESE - 10 -
22.05.2019 03:00:00 13,0 12,0 8 4 ESE - 10 -
22.05.2019 02:00:00 12,9 11,6 11 6 ESE 1015,1 10 -
22.05.2019 01:00:00 13,0 12,0 9 5 E - 10 -
22.05.2019 00:00:00 13,0 11,0 8 4 E - 10 -
21.05.2019 23:00:00 14,8 12,1 8 4 SSW 1015,7 10 0,0
21.05.2019 22:00:00 16,0 12,0 9 5 WSW - 10 -
21.05.2019 21:00:00 18,0 12,0 13 7 WSW - 10 -
21.05.2019 20:00:00 18,9 12,0 15 8 WSW 1013,6 10 -
21.05.2019 19:00:00 20,0 12,0 16 9 W - 10 -
21.05.2019 18:00:00 21,0 13,0 15 8 W - 10 -
21.05.2019 17:00:00 20,3 12,3 15 8 W 1013,0 10 0,0
21.05.2019 16:00:00 21,0 13,0 18 10 W - 10 -
21.05.2019 15:00:00 21,0 13,0 18 10 WSW - 10 -
21.05.2019 14:00:00 19,1 12,6 18 10 WSW 1012,8 10 -
21.05.2019 13:00:00 18,0 13,0 15 8 WSW - 10 -
21.05.2019 12:00:00 17,0 14,0 16 9 SW - 10 -
21.05.2019 11:00:00 16,4 14,2 4 2 - 1011,9 10 0,0
21.05.2019 10:00:00 15,0 14,0 5 3 E - 10 -
21.05.2019 09:00:00 14,0 13,0 2 1 - - 10 -
21.05.2019 08:00:00 13,5 12,9 5 3 SE 1010,8 5 -
21.05.2019 07:00:00 13,0 13,0 5 3 ESE - 8 -
21.05.2019 06:00:00 13,0 13,0 8 4 E - 8 -
21.05.2019 05:00:00 13,1 12,4 8 4 E 1009,9 10 0,0
21.05.2019 04:00:00 13,0 12,0 5 3 NE - 8 -
21.05.2019 03:00:00 14,0 12,0 4 2 - - 10 -
21.05.2019 02:00:00 13,9 11,6 4 2 - 1010,1 10 -
21.05.2019 01:00:00 14,0 12,0 8 4 SSE - 10 -
21.05.2019 00:00:00 14,0 13,0 5 3 E - 10 -
20.05.2019 23:00:00 14,1 13,2 5 3 E 1009,9 10 0,0
20.05.2019 22:00:00 14,0 13,0 8 4 E - 10 -
20.05.2019 21:00:00 14,0 13,0 5 3 E - 10 -
20.05.2019 20:00:00 14,3 12,8 13 7 SE 1009,0 8 -
20.05.2019 19:00:00 15,0 13,0 11 6 ESE - 10 -
20.05.2019 18:00:00 15,0 11,0 15 8 E - 10 -
20.05.2019 17:00:00 16,8 9,9 22 12 S 1008,1 10 0,0
20.05.2019 16:00:00 19,0 13,0 8 4 - - 10 -
20.05.2019 15:00:00 19,0 13,0 5 3 - - 10 -
20.05.2019 14:00:00 16,5 11,8 5 3 NNW 1007,9 10 -
20.05.2019 13:00:00 15,0 12,0 11 6 NW - 10 -
20.05.2019 12:00:00 17,0 12,0 8 4 NNW - 10 -
20.05.2019 11:00:00 16,0 12,0 11 6 NNW 1007,5 10 0,0
20.05.2019 10:00:00 16,0 12,0 9 5 SW - 10 -
20.05.2019 09:00:00 15,0 11,0 9 5 SE - 10 -
20.05.2019 08:00:00 13,9 11,1 8 4 SE 1006,7 10 -
20.05.2019 07:00:00 13,0 11,0 8 4 ESE - 10 -
20.05.2019 06:00:00 13,0 11,0 8 4 SE - 10 -
20.05.2019 05:00:00 13,3 11,7 8 4 SE 1006,5 10 0,0
20.05.2019 04:00:00 13,0 12,0 8 4 ENE - 10 -
20.05.2019 03:00:00 13,0 12,0 4 2 SW - 8 -
20.05.2019 02:00:00 12,9 11,9 8 4 SW 1006,7 10 -
20.05.2019 01:00:00 14,0 12,0 8 4 SSW - 10 -
20.05.2019 00:00:00 14,0 12,0 8 4 SSW - 10 -

tt = temperature
td = dewpoint
ff = wind speed
dd = wind direction
ppp = reduced air pressure
vv = visibility
rr = precipitation

Next stations